Regional Weather Roundup
Issued by NWS

Home | Current Version | Previous Version | Graphics & Text | Print | Product List | Glossary On
Versions: 1 2 3 4 5 6 7 8 9 10 11 12 13 14 15 16 17 18 19 20 21 22 23 24 25 26 27 28 29 30 31 32 33 34 35 36 37 38 39 40 41 42 43 44 45 46 47 48 49 50
000
ASUS43 KLSX 101057
RWRMO

WEATHER SUMMARY FOR MISSOURI
NATIONAL WEATHER SERVICE SPRINGFIELD MO
500 AM CST SUN DEC 10 2017

NOTE: "FAIR" INDICATES FEW OR NO CLOUDS BELOW 12,000 FEET WITH NO
       SIGNIFICANT WEATHER AND/OR OBSTRUCTIONS TO VISIBILITY.
       CURRENT SKY AND/OR WEATHER CONDITIONS ARE NOT AVAILABLE FOR
       CHILLICOTHE AND FARMINGTON.

MOZ001>031-035>038-043-044-053-054-101200-
...NORTHERN AND WESTERN MISSOURI...

CITY           SKY/WX    TMP DP  RH WIND       PRES   REMARKS
KANSAS CTY INT CLEAR     29  21  72 SW14      30.03F WCI  18
LEE`S SUMMIT   CLEAR     32  22  66 SW13      30.05F WCI  22
ST JOSEPH      CLOUDY    30  22  72 CALM      30.05S
CHILLICOTHE      N/A     29  20  69 SW8       30.01F WCI  21

$$
MOZ066>068-077>081-088>096-101>105-101200-
...SOUTHWEST MISSOURI...

CITY           SKY/WX    TMP DP  RH WIND       PRES   REMARKS
SPRINGFIELD    CLOUDY    24  18  77 S9        30.16F WCI  14
JOPLIN         CLEAR     34  24  67 SW13      30.19F WCI  25

$$
MOZ032>034-039>042-045>050-055>058-069>072-101200-
...CENTRAL MISSOURI...

CITY           SKY/WX    TMP DP  RH WIND       PRES   REMARKS
COLUMBIA       NOT AVBL
JEFFERSON CITY CLEAR     27  17  66 CALM      30.12F
ROLLA          CLOUDY    24  17  74 SW15      30.11F WCI  11
SEDALIA        CLEAR     31  22  69 SW17      30.07F WCI  19
WARRENSBURG    CLEAR     30  21  69 S13       30.07F WCI  20

$$
MOZ051-052-059>065-101200-
...EAST CENTRAL MISSOURI...

CITY           SKY/WX    TMP DP  RH WIND       PRES   REMARKS
ST LOUIS INTL  PTCLDY    24  17  74 S8        30.12F WCI  15

$$
MOZ072>076-082>087-097>100-106>115-101200-
...SOUTH CENTRAL AND SOUTHEAST MISSOURI...

CITY           SKY/WX    TMP DP  RH WIND       PRES   REMARKS
CAPE GIRARDEAU CLEAR     19  15  84 CALM      30.23S
POPLAR BLUFF   CLOUDY    22  18  85 SW5       30.24F WCI  16
WEST PLAINS    CLOUDY    25  16  68 SW3       30.19F

$$



USA.gov is the U.S. government's official web portal to all federal, state and local government web resources and services.